CW6829 Weather Reports


time (UTC)temp
C
wind
direction
speed
KPH
gust
KPH
rain 1hr
cm
rain 24hr
cm
rain mn
cm
humidity
%
barometer
mb
20260507095020 8 0.0 0.0 0.00 0.00 0.00 83 1021.9
20260507094020 9 0.0 0.0 0.00 0.00 0.00 81 1022.0
20260507093020 10 0.0 0.0 0.00 0.00 0.00 80 1022.0
20260507092019 10 0.0 6.4 0.00 0.00 0.00 80 1022.1
20260507091020 10 0.0 0.0 0.00 0.00 0.00 79 1022.2
20260507090041 10 0.0 0.0 0.00 0.00 0.00 79 1022.1
20260507085019 10 0.0 1.6 0.00 0.00 0.00 78 1022.1
20260507084020 10 0.0 4.8 0.00 0.00 0.00 78 1022.1
20260507083020 10 0.0 6.4 0.00 0.00 0.00 78 1022.2
20260507082019 10 0.0 8.0 0.00 0.00 0.00 79 1022.1
20260507081020 11 0.0 3.2 0.00 0.00 0.00 79 1022.1
20260507080041 11 0.0 1.6 0.00 0.00 0.00 79 1022.1
20260507075018 11 0.0 6.4 0.00 0.00 0.00 79 1022.1
20260507074019 11 0.0 6.4 0.00 0.00 0.00 79 1022.0
20260507073019 11 0.0 0.0 0.00 0.00 0.00 79 1022.0
20260507072020 11 0.0 6.4 0.00 0.00 0.00 79 1021.9
20260507071039 11 0.0 0.0 0.00 0.00 0.00 78 1021.9
20260507070039 11 225 1.6 8.0 0.00 0.00 0.00 77 1022.0
20260507065019 11 0.0 6.4 0.00 0.00 0.00 77 1022.0
20260507064021 11 0.0 8.0 0.00 0.00 0.00 77 1022.0
20260507063041 11 0.0 4.8 0.00 0.00 0.00 78 1021.9
20260507062020 11 293 1.6 8.0 0.00 0.00 0.00 78 1022.0
20260507061039 11 293 1.6 11.3 0.00 0.00 0.00 79 1021.9
20260507060021 11 293 1.6 11.3 0.00 0.00 0.00 79 1021.9
20260507055100 11 0.0 6.4 0.00 0.00 0.00 81 1021.9
20260507054019 12 0.0 3.2 0.00 0.00 0.00 81 1021.9
20260507053039 12 0.0 0.0 0.00 0.00 0.00 81 1022.0
20260507052020 12 0.0 6.4 0.00 0.00 0.00 81 1022.0
20260507051019 12 0.0 0.0 0.00 0.00 0.00 81 1022.0
20260507050020 12 0.0 4.8 0.00 0.00 0.00 81 1021.9
20260507045020 12 0.0 0.0 0.00 0.00 0.00 81 1022.0
20260507044020 12 0.0 9.7 0.00 0.00 0.00 81 1022.0
20260507043039 12 0.0 0.0 0.00 0.00 0.00 81 1022.0
20260507042020 12 0.0 4.8 0.00 0.00 0.00 80 1021.9
20260507041019 12 0.0 6.4 0.00 0.00 0.00 80 1021.9
20260507040019 12 0.0 3.2 0.00 0.00 0.00 80 1021.9
20260507035018 12 0.0 4.8 0.00 0.00 0.00 80 1021.7
20260507034020 12 0.0 6.4 0.00 0.00 0.00 81 1021.7
20260507033019 12 293 1.6 8.0 0.00 0.00 0.00 80 1021.6
20260507032019 12 0.0 6.4 0.00 0.00 0.00 80 1021.5
20260507031019 12 270 1.6 9.7 0.00 0.00 0.00 80 1021.4
20260507030021 12 293 1.6 11.3 0.00 0.00 0.00 80 1021.3
20260507025019 12 293 1.6 12.9 0.00 0.00 0.00 80 1021.1
20260507024020 12 0.0 8.0 0.00 0.00 0.00 79 1021.0
20260507023019 13 0.0 11.3 0.00 0.00 0.00 78 1020.9
20260507022021 13 315 1.6 11.3 0.00 0.00 0.00 78 1021.0
20260507021038 13 315 3.2 14.5 0.00 0.00 0.00 77 1021.0
20260507020018 13 293 3.2 20.9 0.00 0.00 0.00 76 1021.1
20260507015019 13 270 3.2 14.5 0.00 0.00 0.00 76 1021.0
20260507014019 13 293 1.6 11.3 0.00 0.00 0.00 76 1020.9
20260507013018 14 293 1.6 11.3 0.00 0.00 0.00 75 1021.0
20260507012019 14 315 1.6 14.5 0.00 0.00 0.00 75 1020.9
20260507011039 15 315 1.6 12.9 0.00 0.00 0.00 75 1021.0
20260507010038 14 315 3.2 11.3 0.00 0.00 0.00 75 1021.0
20260507005018 15 293 3.2 12.9 0.00 0.00 0.00 73 1021.0
20260507004020 15 293 1.6 12.9 0.00 0.00 0.00 74 1021.0
20260507003018 15 293 1.6 9.7 0.00 0.00 0.00 74 1021.1
20260507002020 15 293 4.8 17.7 0.00 0.00 0.00 73 1021.1
20260507001020 15 293 3.2 12.9 0.00 0.00 0.00 73 1021.1
20260507000018 15 315 3.2 14.5 0.00 0.00 0.00 72 1021.1
20260506235019 16 315 1.6 11.3 0.00 0.00 0.00 71 1021.1
20260506234019 16 293 3.2 14.5 0.00 0.00 0.00 70 1021.0
20260506233018 16 293 3.2 9.7 0.00 0.00 0.00 70 1021.0
20260506232019 16 315 4.8 14.5 0.00 0.00 0.00 70 1020.9
20260506231018 17 293 3.2 11.3 0.00 0.00 0.00 69 1021.0
20260506230018 17 270 3.2 19.3 0.00 0.00 0.00 69 1021.0
20260506225018 16 293 3.2 12.9 0.00 0.00 0.00 70 1021.0
20260506224020 16 293 3.2 16.1 0.00 0.00 0.00 72 1021.1
20260506223020 16 248 1.6 8.0 0.00 0.00 0.00 72 1021.1
20260506222019 16 293 1.6 9.7 0.00 0.00 0.00 71 1021.2
20260506221020 16 293 1.6 8.0 0.00 0.00 0.00 71 1021.3
20260506220021 16 225 3.2 12.9 0.00 0.00 0.00 71 1021.4
20260506215020 16 248 3.2 11.3 0.00 0.00 0.00 71 1021.4
20260506214020 16 248 3.2 27.4 0.00 0.00 0.00 70 1021.4
20260506213019 16 248 3.2 16.1 0.00 0.00 0.00 71 1021.3
20260506212019 16 270 4.8 19.3 0.00 0.00 0.00 70 1021.4
20260506211040 16 270 6.4 24.1 0.00 0.00 0.00 71 1021.3
20260506210019 16 315 4.8 22.5 0.00 0.00 0.00 72 1021.2
20260506205019 15 225 6.4 19.3 0.00 0.00 0.00 74 1021.2
20260506204020 15 315 8.0 30.6 0.00 0.00 0.00 75 1021.3
20260506203019 15 270 4.8 22.5 0.00 0.00 0.00 78 1021.1
20260506202019 15 293 6.4 20.9 0.00 0.00 0.00 78 1021.0
20260506201020 15 270 6.4 20.9 0.00 0.00 0.00 78 1021.0
20260506200019 15 225 8.0 32.2 0.00 0.00 0.00 79 1020.9
20260506195021 15 225 6.4 20.9 0.00 0.00 0.00 80 1020.9
20260506194022 14 225 6.4 22.5 0.00 0.00 0.00 81 1020.8
20260506193040 14 270 4.8 22.5 0.00 0.00 0.00 82 1021.0
20260506192020 13 293 4.8 16.1 0.00 0.00 0.00 83 1021.0
20260506191019 13 315 4.8 19.3 0.00 0.00 0.00 83 1021.0
20260506190039 13 293 3.2 12.9 0.00 0.00 0.00 83 1021.0
20260506185039 14 315 4.8 19.3 0.00 0.00 0.00 82 1020.9
20260506184020 14 0 1.6 8.0 0.00 0.00 0.00 83 1020.7
20260506183019 13 315 3.2 8.0 0.00 0.00 0.00 84 1020.6
20260506182039 13 0 1.6 8.0 0.00 0.00 0.00 85 1020.8
20260506181019 13 338 1.6 11.3 0.00 0.00 0.00 86 1020.9
20260506180020 12 315 1.6 9.7 0.00 0.00 0.00 86 1020.6
20260506175039 12 315 1.6 9.7 0.00 0.00 0.00 87 1020.7
20260506174039 12 315 1.6 6.4 0.00 0.00 0.00 87 1020.9
20260506173019 12 293 1.6 9.7 0.00 0.00 0.00 87 1020.8
20260506172020 12 315 3.2 12.9 0.00 0.00 0.00 87 1020.9
20260506171019 12 293 1.6 8.0 0.00 0.00 0.00 87 1020.8
20260506170039 12 315 3.2 9.7 0.00 0.00 0.00 87 1020.7
20260506165018 12 0 1.6 9.7 0.00 0.00 0.00 87 1020.6
20260506164039 12 315 1.6 9.7 0.00 0.00 0.00 87 1020.6
20260506163019 12 315 1.6 9.7 0.00 0.00 0.00 87 1020.5
20260506162018 12 315 1.6 6.4 0.00 0.00 0.00 87 1020.5
20260506161020 12 248 1.6 9.7 0.00 0.00 0.00 87 1020.6
20260506160019 12 315 1.6 11.3 0.00 0.00 0.00 87 1020.6
20260506155139 12 315 1.6 9.7 0.00 0.00 0.00 87 1020.5
20260506154019 12 270 1.6 8.0 0.00 0.00 0.00 87 1020.4
20260506153037 12 0.0 4.8 0.00 0.00 0.00 87 1020.6
20260506152018 11 0.0 8.0 0.00 0.00 0.00 87 1020.5
20260506151019 11 293 1.6 6.4 0.00 0.00 0.00 88 1020.5
20260506150018 11 293 1.6 11.3 0.00 0.00 0.00 88 1020.4
20260506145018 11 315 1.6 6.4 0.00 0.00 0.00 88 1020.2
20260506144019 11 0.0 4.8 0.00 0.00 0.00 88 1019.9
20260506143018 11 0.0 1.6 0.00 0.00 0.00 89 1020.3
20260506142019 11 0.0 0.0 0.00 0.00 0.00 89 1020.3
20260506141018 11 0.0 6.4 0.00 0.00 0.00 89 1020.4
20260506140018 11 0.0 3.2 0.00 0.00 0.00 89 1020.4
20260506135020 11 0.0 6.4 0.00 0.00 0.00 89 1020.5
20260506134041 11 248 1.6 8.0 0.00 0.00 0.00 89 1020.3
20260506133040 11 0.0 4.8 0.00 0.00 0.00 89 1020.3
20260506132020 11 0.0 0.0 0.00 0.00 0.00 89 1020.1
20260506131020 11 0.0 0.0 0.00 0.00 0.00 89 1020.0
20260506130040 11 0.0 0.0 0.00 0.00 0.00 90 1020.1
20260506125019 11 0.0 0.0 0.00 0.00 0.00 89 1019.9
20260506124021 11 0.0 0.0 0.00 0.00 0.00 89 1019.8
20260506123040 11 0.0 0.0 0.00 0.00 0.00 89 1019.8
20260506122019 11 0.0 0.0 0.00 0.00 0.00 89 1019.6
20260506121020 11 0.0 0.0 0.00 0.00 0.00 89 1019.5
20260506120019 11 0.0 0.0 0.00 0.00 0.00 89 1019.5
20260506115019 11 0.0 0.0 0.00 0.00 0.00 89 1019.5
20260506114020 11 0.0 0.0 0.00 0.00 0.00 89 1019.5
20260506113019 11 0.0 0.0 0.00 0.00 0.00 88 1019.4
20260506112020 11 0.0 6.4 0.00 0.00 0.00 88 1019.4
20260506111019 11 0.0 6.4 0.00 0.00 0.00 88 1019.4
20260506110021 11 293 1.6 6.4 0.00 0.00 0.00 89 1019.3
20260506105020 11 315 1.6 6.4 0.00 0.00 0.00 89 1019.2
20260506104020 11 315 1.6 6.4 0.00 0.00 0.00 90 1019.1
20260506103020 11 0.0 0.0 0.00 0.00 0.00 90 1018.9
20260506102019 11 0.0 0.0 0.00 0.00 0.00 90 1018.8
20260506101019 11 0.0 0.0 0.00 0.00 0.00 90 1018.7
20260506100019 11 0.0 0.0 0.00 0.00 0.00 90 1018.7